CW9825 Weather Reports


Display with metric or nautical units.
time (UTC)temp
F
wind
direction
speed
MPH
gust
MPH
rain 1hr
in
rain 24hr
in
rain mn
in
humidity
%
barometer
mb
20210512103046 40 153 2.0 6.0 0.00 0.00 0.00 52 1027.2
20210512102529 40 150 2.0 6.0 0.00 0.00 0.00 52 1027.1
20210512102031 40 150 2.0 6.0 0.00 0.00 0.00 53 1027.1
20210512101553 40 150 2.0 5.0 0.00 0.00 0.00 55 1027.1
20210512101023 40 150 2.0 5.0 0.00 0.00 0.00 53 1027.1
20210512100530 40 150 1.0 5.0 0.00 0.00 0.00 54 1027.1
20210512100110 41 150 1.0 6.0 0.00 0.00 0.00 52 1027.0
20210512095520 41 150 2.0 6.0 0.00 0.00 0.00 52 1027.0
20210512095020 41 150 3.0 6.0 0.00 0.00 0.00 51 1027.0
20210512094605 41 150 3.0 6.0 0.00 0.00 0.00 51 1026.9
20210512094019 41 150 2.0 6.0 0.00 0.00 0.00 52 1026.9
20210512093520 41 150 2.0 6.0 0.00 0.00 0.00 51 1027.0
20210512093047 41 150 2.0 5.0 0.00 0.00 0.00 52 1026.9
20210512092522 41 150 1.0 6.0 0.00 0.00 0.00 54 1026.9
20210512092018 41 150 2.0 6.0 0.00 0.00 0.00 52 1026.9
20210512091519 41 150 2.0 5.0 0.00 0.00 0.00 53 1026.8
20210512091017 41 150 1.0 6.0 0.00 0.00 0.00 53 1026.8
20210512090521 41 150 2.0 7.0 0.00 0.00 0.00 53 1026.8
20210512090102 41 150 3.0 7.0 0.00 0.00 0.00 52 1026.7
20210512085515 42 151 2.0 9.0 0.00 0.00 0.00 52 1026.7
20210512085015 42 149 5.0 9.0 0.00 0.00 0.00 51 1026.7
20210512084551 42 161 5.0 7.0 0.00 0.00 0.00 51 1026.6
20210512084027 42 178 2.0 6.0 0.00 0.00 0.00 51 1026.6
20210512083513 42 179 3.0 5.0 0.00 0.00 0.00 52 1026.6
20210512083037 41 179 0.0 2.0 0.00 0.00 0.00 53 1026.7
20210512082515 42 179 0.0 2.0 0.00 0.00 0.00 52 1026.7
20210512082011 42 179 0.0 2.0 0.00 0.00 0.00 52 1026.7
20210512081531 41 179 0.0 3.0 0.00 0.00 0.00 52 1026.7
20210512081010 42 179 0.0 3.0 0.00 0.00 0.00 50 1026.7
20210512080524 43 179 1.0 4.0 0.00 0.00 0.00 49 1026.7
20210512080030 42 180 2.0 4.0 0.00 0.00 0.00 50 1026.7
20210512075508 42 180 2.0 5.0 0.00 0.00 0.00 52 1026.7
20210512075017 42 180 2.0 5.0 0.00 0.00 0.00 54 1026.7
20210512074532 42 152 2.0 3.0 0.00 0.00 0.00 52 1026.8
20210512074010 42 152 1.0 3.0 0.00 0.00 0.00 52 1026.8
20210512073514 42 152 1.0 3.0 0.00 0.00 0.00 52 1026.8
20210512073015 44 152 1.0 3.0 0.00 0.00 0.00 48 1026.8
20210512072504 44 152 1.0 5.0 0.00 0.00 0.00 47 1026.7
20210512072004 44 152 2.0 5.0 0.00 0.00 0.00 48 1026.8
20210512071503 44 152 1.0 5.0 0.00 0.00 0.00 48 1026.9
20210512071004 44 144 3.0 5.0 0.00 0.00 0.00 47 1026.8
20210512070505 44 144 3.0 7.0 0.00 0.00 0.00 47 1026.9
20210512070016 44 143 3.0 7.0 0.00 0.00 0.00 47 1026.9
20210512065501 44 148 3.0 7.0 0.00 0.00 0.00 46 1026.9
20210512064706 45 151 2.0 6.0 0.00 0.00 0.00 45 1026.8
20210512064059 45 153 3.0 6.0 0.00 0.00 0.00 45 1026.8
20210512063606 44 153 2.0 3.0 0.00 0.00 0.00 44 1026.8
20210512063153 44 153 1.0 3.0 0.00 0.00 0.00 45 1026.7
20210512062601 43 153 1.0 3.0 0.00 0.00 0.00 48 1026.7
20210512062102 44 153 0.0 3.0 0.00 0.00 0.00 46 1026.6
20210512061711 45 153 0.0 5.0 0.00 0.00 0.00 43 1026.6
20210512061145 46 153 2.0 5.0 0.00 0.00 0.00 41 1026.6
20210512060554 46 153 2.0 5.0 0.00 0.00 0.00 41 1026.7
20210512060219 46 153 2.0 3.0 0.00 0.00 0.00 42 1026.6
20210512055555 45 153 1.0 3.0 0.00 0.00 0.00 44 1026.7
20210512055051 46 153 1.0 3.0 0.00 0.00 0.00 41 1026.7
20210512054636 47 153 1.0 3.0 0.00 0.00 0.00 40 1026.6
20210512054106 47 153 1.0 3.0 0.00 0.00 0.00 38 1026.7
20210512053549 48 153 2.0 3.0 0.00 0.00 0.00 38 1026.7
20210512053148 48 153 2.0 3.0 0.00 0.00 0.00 38 1026.7
20210512052547 48 153 1.0 3.0 0.00 0.00 0.00 38 1026.7
20210512052047 48 153 2.0 3.0 0.00 0.00 0.00 39 1026.7
20210512051642 47 153 1.0 3.0 0.00 0.00 0.00 40 1026.7
20210512051049 48 153 1.0 3.0 0.00 0.00 0.00 38 1026.7
20210512050601 48 153 1.0 2.0 0.00 0.00 0.00 39 1026.7
20210512050048 47 153 1.0 2.0 0.00 0.00 0.00 39 1026.7
20210512045545 47 153 1.0 3.0 0.00 0.00 0.00 40 1026.7
20210512045046 47 153 1.0 3.0 0.00 0.00 0.00 43 1026.7
20210512044656 48 153 0.0 2.0 0.00 0.00 0.00 40 1026.7
20210512044042 49 153 0.0 5.0 0.00 0.00 0.00 39 1026.7
20210512043552 50 153 1.0 6.0 0.00 0.00 0.00 36 1026.8
20210512043133 50 153 2.0 6.0 0.00 0.00 0.00 36 1026.8
20210512042608 49 161 1.0 2.0 0.00 0.00 0.00 39 1026.7
20210512042042 49 161 1.0 2.0 0.00 0.00 0.00 38 1026.6
20210512041557 49 161 1.0 2.0 0.00 0.00 0.00 38 1026.6
20210512041041 49 161 1.0 2.0 0.00 0.00 0.00 37 1026.6
20210512040542 49 161 1.0 3.0 0.00 0.00 0.00 37 1026.6
20210512040109 50 161 1.0 4.0 0.00 0.00 0.00 36 1026.6
20210512035547 50 161 1.0 3.0 0.00 0.00 0.00 38 1026.7
20210512035041 50 161 2.0 3.0 0.00 0.00 0.00 36 1026.6
20210512034638 50 161 1.0 4.0 0.00 0.00 0.00 37 1026.6
20210512034057 51 161 1.0 3.0 0.00 0.00 0.00 35 1026.6
20210512033540 51 161 2.0 4.0 0.00 0.00 0.00 35 1026.6
20210512033055 51 161 1.0 3.0 0.00 0.00 0.00 35 1026.6
20210512032545 51 161 2.0 4.0 0.00 0.00 0.00 36 1026.6
20210512032057 51 161 1.0 3.0 0.00 0.00 0.00 35 1026.6
20210512031700 51 161 1.0 3.0 0.00 0.00 0.00 34 1026.6
20210512031040 52 161 1.0 3.0 0.00 0.00 0.00 34 1026.4
20210512030539 52 161 0.0 2.0 0.00 0.00 0.00 34 1026.5
20210512030130 52 161 1.0 2.0 0.00 0.00 0.00 33 1026.5
20210512025543 52 161 0.0 3.0 0.00 0.00 0.00 34 1026.4
20210512025104 53 161 1.0 4.0 0.00 0.00 0.00 33 1026.4
20210512024038 53 161 0.0 2.0 0.00 0.00 0.00 32 1026.4
20210512023538 53 161 1.0 2.0 0.00 0.00 0.00 33 1026.3
20210512023124 54 161 1.0 3.0 0.00 0.00 0.00 33 1026.3
20210512022552 54 161 1.0 3.0 0.00 0.00 0.00 32 1026.2
20210512022038 55 161 1.0 3.0 0.00 0.00 0.00 32 1026.2
20210512021610 55 161 1.0 5.0 0.00 0.00 0.00 31 1026.1
20210512021037 56 161 2.0 5.0 0.00 0.00 0.00 31 1026.1
20210512020546 55 161 2.0 5.0 0.00 0.00 0.00 31 1026.0
20210512020123 56 161 1.0 5.0 0.00 0.00 0.00 31 1026.1
20210512015537 56 161 2.0 4.0 0.00 0.00 0.00 30 1026.0
20210512015037 57 161 1.0 3.0 0.00 0.00 0.00 29 1025.9
20210512014611 57 161 1.0 5.0 0.00 0.00 0.00 29 1026.0
20210512013539 59 160 1.0 5.0 0.00 0.00 0.00 27 1025.9
20210512013050 59 160 2.0 6.0 0.00 0.00 0.00 26 1025.9
20210512012557 60 160 2.0 6.0 0.00 0.00 0.00 26 1025.9
20210512012045 60 165 2.0 5.0 0.00 0.00 0.00 26 1025.8
20210512011613 60 171 1.0 6.0 0.00 0.00 0.00 27 1025.8
20210512011038 60 171 3.0 7.0 0.00 0.00 0.00 25 1025.8
20210512010536 61 153 2.0 8.0 0.00 0.00 0.00 24 1025.7
20210512010109 61 146 3.0 8.0 0.00 0.00 0.00 24 1025.7
20210512005551 62 177 2.0 4.0 0.00 0.00 0.00 24 1025.7
20210512005034 62 194 1.0 6.0 0.00 0.00 0.00 22 1025.7
20210512005004 62 194 1.0 6.0 0.00 0.00 0.00 22 1025.7
20210512004612 61 194 3.0 7.0 0.00 0.00 0.00 25 1025.7
20210512004033 62 188 4.0 7.0 0.00 0.00 0.00 26 1025.6
20210512003533 62 228 1.0 5.0 0.00 0.00 0.00 23 1025.6
20210512003137 62 244 2.0 5.0 0.00 0.00 0.00 21 1025.7
20210512002541 62 230 1.0 5.0 0.00 0.00 0.00 24 1025.7
20210512002033 62 229 1.0 4.0 0.00 0.00 0.00 24 1025.7
20210512001544 62 231 1.0 4.0 0.00 0.00 0.00 22 1025.6
20210512001031 62 238 1.0 5.0 0.00 0.00 0.00 22 1025.7
20210512000531 63 237 1.0 8.0 0.00 0.00 0.00 23 1025.6
20210512000035 62 243 3.0 8.0 0.00 0.00 0.00 22 1025.7
20210511235538 63 251 2.0 7.0 0.00 0.00 0.00 22 1025.6
20210511235030 63 235 1.0 3.0 0.00 0.00 0.00 22 1025.6
20210511234610 63 235 0.0 4.0 0.00 0.00 0.00 23 1025.6
20210511234055 63 235 1.0 8.0 0.00 0.00 0.00 22 1025.6
20210511233535 63 138 4.0 8.0 0.00 0.00 0.00 22 1025.6
20210511233040 63 181 0.0 5.0 0.00 0.00 0.00 21 1025.5
20210511232539 64 223 2.0 6.0 0.00 0.00 0.00 23 1025.5
20210511232028 64 174 3.0 7.0 0.00 0.00 0.00 23 1025.5
20210511231539 64 24 2.0 7.0 0.00 0.00 0.00 21 1025.5
20210511231027 64 298 1.0 7.0 0.00 0.00 0.00 21 1025.5
20210511230527 64 188 3.0 6.0 0.00 0.00 0.00 22 1025.4
20210511230041 64 131 4.0 14.0 0.00 0.00 0.00 20 1025.4
20210511225532 64 184 7.0 14.0 0.00 0.00 0.00 20 1025.4
20210511225026 64 88 3.0 6.0 0.00 0.00 0.00 22 1025.4
20210511224535 63 169 1.0 5.0 0.00 0.00 0.00 21 1025.4
20210511224023 64 176 2.0 5.0 0.00 0.00 0.00 23 1025.4
20210511223528 64 95 2.0 9.0 0.00 0.00 0.00 22 1025.4
20210511223047 64 115 4.0 11.0 0.00 0.00 0.00 23 1025.4
20210511222522 64 179 3.0 10.0 0.00 0.00 0.00 22 1025.4
20210511222022 64 148 7.0 10.0 0.00 0.00 0.00 21 1025.3
20210511221529 65 136 3.0 10.0 0.00 0.00 0.00 22 1025.4
20210511221020 64 97 5.0 8.0 0.00 0.00 0.00 21 1025.3
20210511220524 63 130 5.0 8.0 0.00 0.00 0.00 23 1025.5
20210511220110 64 322 2.0 7.0 0.00 0.00 0.00 23 1025.3
20210511215518 65 200 3.0 7.0 0.00 0.00 0.00 22 1025.5
20210511215021 65 203 3.0 7.0 0.00 0.00 0.00 24 1025.4
20210511214611 65 152 2.0 8.0 0.00 0.00 0.00 22 1025.5
20210511214017 65 338 1.0 8.0 0.00 0.00 0.00 24 1025.5
20210511213516 65 158 3.0 8.0 0.00 0.00 0.00 22 1026.0
20210511213023 64 98 2.0 7.0 0.00 0.00 0.00 24 1025.6
20210511212515 65 103 1.0 6.0 0.00 0.00 0.00 23 1025.6
20210511212014 64 93 3.0 7.0 0.00 0.00 0.00 21 1025.6
20210511211530 64 82 3.0 7.0 0.00 0.00 0.00 23 1025.8
20210511211018 63 50 3.0 10.0 0.00 0.00 0.00 23 1025.8
20210511210512 64 78 6.0 10.0 0.00 0.00 0.00 20 1025.9
20210511210033 64 160 2.0 6.0 0.00 0.00 0.00 22 1025.9
20210511205519 64 175 5.0 9.0 0.00 0.00 0.00 26 1025.9
20210511205010 64 221 3.0 9.0 0.00 0.00 0.00 20 1026.0
20210511204523 63 228 3.0 6.0 0.00 0.00 0.00 23 1026.0
20210511204017 63 319 1.0 7.0 0.00 0.00 0.00 25 1026.0
20210511203510 64 267 3.0 9.0 0.00 0.00 0.00 23 1026.1
20210511203016 64 184 2.0 9.0 0.00 0.00 0.00 22 1026.1
20210511202509 64 242 3.0 7.0 0.00 0.00 0.00 24 1026.2
20210511202012 64 229 1.0 6.0 0.00 0.00 0.00 24 1026.2
20210511201528 63 106 1.0 6.0 0.00 0.00 0.00 25 1026.2
20210511201005 63 174 2.0 6.0 0.00 0.00 0.00 24 1026.2
20210511200505 62 5 1.0 7.0 0.00 0.00 0.00 24 1026.2
20210511195504 63 159 3.0 10.0 0.00 0.00 0.00 24 1026.4
20210511195003 62 125 2.0 13.0 0.00 0.00 0.00 26 1026.4
20210511194520 63 183 4.0 13.0 0.00 0.00 0.00 22 1026.5
20210511194005 63 247 3.0 11.0 0.00 0.00 0.00 23 1026.5
20210511193503 63 161 3.0 9.0 0.00 0.00 0.00 27 1026.5
20210511193006 63 232 2.0 9.0 0.00 0.00 0.00 26 1026.7
20210511192504 62 255 4.0 9.0 0.00 0.00 0.00 24 1026.8
20210511192000 63 153 2.0 7.0 0.00 0.00 0.00 27 1026.8
20210511191716 63 309 3.0 7.0 0.00 0.00 0.00 30 1026.7
20210511191135 61 30 3.0 7.0 0.00 0.00 0.00 25 1026.8
20210511190600 62 294 4.0 11.0 0.00 0.00 0.00 25 1026.8
20210511190203 62 263 4.0 11.0 0.00 0.00 0.00 26 1026.9
20210511185559 61 228 4.0 8.0 0.00 0.00 0.00 25 1026.9
20210511185100 61 196 2.0 7.0 0.00 0.00 0.00 26 1027.0
20210511184823 62 248 3.0 7.0 0.00 0.00 0.00 27 1027.0
20210511184102 60 97 1.0 7.0 0.00 0.00 0.00 27 1027.1
20210511183635 60 140 2.0 9.0 0.00 0.00 0.00 26 1027.1
20210511183159 60 124 3.0 9.0 0.00 0.00 0.00 26 1027.2
20210511182607 60 134 5.0 12.0 0.00 0.00 0.00 27 1027.3
20210511182058 60 186 3.0 12.0 0.00 0.00 0.00 25 1027.2
20210511181653 61 136 7.0 12.0 0.00 0.00 0.00 28 1027.3
20210511181059 60 28 2.0 10.0 0.00 0.00 0.00 27 1027.3
20210511180558 60 242 3.0 10.0 0.00 0.00 0.00 26 1027.4
20210511180113 59 56 2.0 11.0 0.00 0.00 0.00 29 1027.5
20210511175627 60 243 4.0 12.0 0.00 0.00 0.00 28 1027.6
20210511175052 60 249 6.0 12.0 0.00 0.00 0.00 27 1027.5
20210511174659 60 261 5.0 8.0 0.00 0.00 0.00 29 1027.6
20210511174052 59 329 1.0 8.0 0.00 0.00 0.00 25 1027.6
20210511173550 60 315 3.0 10.0 0.00 0.00 0.00 30 1027.7
20210511173202 59 259 3.0 10.0 0.00 0.00 0.00 27 1027.8
20210511172549 59 246 2.0 8.0 0.00 0.00 0.00 28 1027.8
20210511172123 59 171 4.0 12.0 0.00 0.00 0.00 30 1027.9
20210511171825 60 240 3.0 12.0 0.00 0.00 0.00 30 1027.9
20210511171057 59 177 3.0 8.0 0.00 0.00 0.00 29 1028.0
20210511170546 59 81 3.0 10.0 0.00 0.00 0.00 27 1028.0
20210511170208 59 217 4.0 10.0 0.00 0.00 0.00 30 1028.0
20210511165545 58 175 3.0 8.0 0.00 0.00 0.00 27 1028.1
20210511165043 57 210 0.0 6.0 0.00 0.00 0.00 29 1028.1
20210511164616 58 229 2.0 11.0 0.00 0.00 0.00 28 1028.2
20210511164047 59 148 6.0 11.0 0.00 0.00 0.00 27 1028.2
20210511163604 59 143 4.0 11.0 0.00 0.00 0.00 30 1028.2
20210511163116 59 180 6.0 11.0 0.00 0.00 0.00 30 1028.2
20210511162538 58 134 4.0 10.0 0.00 0.00 0.00 30 1028.2
20210511162037 57 74 3.0 5.0 0.00 0.00 0.00 30 1028.3
20210511161637 57 329 2.0 6.0 0.00 0.00 0.00 30 1028.3
20210511161035 58 360 2.0 6.0 0.00 0.00 0.00 32 1028.4
20210511160534 57 26 3.0 7.0 0.00 0.00 0.00 29 1028.4
20210511160049 57 295 2.0 9.0 0.00 0.00 0.00 35 1028.5
20210511155531 58 264 5.0 9.0 0.00 0.00 0.00 29 1028.5
20210511155031 58 171 4.0 10.0 0.00 0.00 0.00 30 1028.4
20210511154556 57 202 3.0 10.0 0.00 0.00 0.00 32 1028.5
20210511154027 57 199 3.0 8.0 0.00 0.00 0.00 31 1028.5
20210511153543 57 194 5.0 8.0 0.00 0.00 0.00 32 1028.5
20210511153025 56 225 3.0 8.0 0.00 0.00 0.00 32 1028.6
20210511152534 56 163 1.0 7.0 0.00 0.00 0.00 32 1028.5
20210511152026 56 188 3.0 8.0 0.00 0.00 0.00 35 1028.5
20210511151522 55 157 1.0 8.0 0.00 0.00 0.00 39 1028.6
20210511151030 54 273 3.0 10.0 0.00 0.00 0.00 37 1028.6
20210511150521 54 255 5.0 10.0 0.00 0.00 0.00 37 1028.6
20210511150037 54 217 1.0 9.0 0.00 0.00 0.00 39 1028.6
20210511145514 53 279 3.0 9.0 0.00 0.00 0.00 39 1028.6
20210511145013 54 235 2.0 7.0 0.00 0.00 0.00 40 1028.8
20210511144514 53 215 2.0 8.0 0.00 0.00 0.00 42 1028.8
20210511144010 52 256 4.0 8.0 0.00 0.00 0.00 39 1028.8
20210511143515 51 240 2.0 8.0 0.00 0.00 0.00 41 1028.8
20210511143031 51 226 3.0 7.0 0.00 0.00 0.00 42 1028.8
20210511142508 51 255 3.0 7.0 0.00 0.00 0.00 41 1028.7
20210511142006 51 248 3.0 8.0 0.00 0.00 0.00 42 1028.7
20210511141534 50 248 5.0 8.0 0.00 0.00 0.00 45 1028.8
20210511141002 49 225 2.0 5.0 0.00 0.00 0.00 45 1028.6
20210511140501 49 226 2.0 5.0 0.00 0.00 0.00 44 1028.6
20210511140207 49 232 1.0 5.0 0.00 0.00 0.00 48 1028.6
20210511135610 48 252 2.0 5.0 0.00 0.00 0.00 45 1028.6
20210511135102 47 236 2.0 5.0 0.00 0.00 0.00 48 1028.6
20210511134617 47 252 1.0 6.0 0.00 0.00 0.00 48 1028.6
20210511134104 46 183 2.0 5.0 0.00 0.00 0.00 49 1028.6
20210511133559 45 183 1.0 7.0 0.00 0.00 0.00 49 1028.6
20210511133107 45 182 2.0 7.0 0.00 0.00 0.00 49 1028.5
20210511132554 44 185 2.0 6.0 0.00 0.00 0.00 51 1028.5
20210511132050 44 184 2.0 6.0 0.00 0.00 0.00 52 1028.5
20210511131556 43 188 1.0 6.0 0.00 0.00 0.00 52 1028.4
20210511131101 43 179 2.0 5.0 0.00 0.00 0.00 55 1028.4
20210511130546 42 178 2.0 6.0 0.00 0.00 0.00 55 1028.3
20210511130153 42 179 3.0 5.0 0.00 0.00 0.00 56 1028.3
20210511125543 41 179 1.0 5.0 0.00 0.00 0.00 55 1028.3
20210511125041 40 169 1.0 5.0 0.00 0.00 0.00 56 1028.3
20210511124554 40 169 1.0 6.0 0.00 0.00 0.00 58 1028.2
20210511124039 39 169 3.0 6.0 0.00 0.00 0.00 60 1028.3
20210511123545 39 193 3.0 6.0 0.00 0.00 0.00 59 1028.3
20210511123201 38 188 2.0 6.0 0.00 0.00 0.00 60 1028.2
20210511122537 37 176 3.0 7.0 0.00 0.00 0.00 61 1028.2
20210511122041 37 192 3.0 7.0 0.00 0.00 0.00 61 1028.1
20210511121552 37 169 3.0 5.0 0.00 0.00 0.00 63 1028.1
20210511121035 36 184 1.0 4.0 0.00 0.00 0.00 64 1028.0
20210511120536 36 184 1.0 4.0 0.00 0.00 0.00 64 1027.9
20210511120114 35 184 2.0 4.0 0.00 0.00 0.00 64 1027.9
20210511115531 35 183 2.0 4.0 0.00 0.00 0.00 65 1027.7
20210511115031 34 183 2.0 3.0 0.00 0.00 0.00 67 1027.7
20210511114625 33 183 1.0 3.0 0.00 0.00 0.00 68 1027.6
20210511114031 33 183 1.0 3.0 0.00 0.00 0.00 67 1027.7
20210511113529 32 183 1.0 2.0 0.00 0.00 0.00 69 1027.6
20210511113046 32 183 0.0 2.0 0.00 0.00 0.00 69 1027.6
20210511112534 32 183 0.0 2.0 0.00 0.00 0.00 67 1027.5
20210511112029 32 183 0.0 3.0 0.00 0.00 0.00 68 1027.5
20210511111641 32 184 1.0 3.0 0.00 0.00 0.00 67 1027.4
20210511111026 32 184 2.0 3.0 0.00 0.00 0.00 67 1027.4
20210511110525 32 184 0.0 1.0 0.00 0.00 0.00 66 1027.4
20210511110059 32 184 0.0 1.0 0.00 0.00 0.00 66 1027.3
20210511105523 32 184 0.0 1.0 0.00 0.00 0.00 65 1027.3
20210511105030 32 184 0.0 2.0 0.00 0.00 0.00 64 1027.2
20210511104553 33 184 1.0 2.0 0.00 0.00 0.00 64 1027.1
20210511104022 33 184 0.0 4.0 0.00 0.00 0.00 64 1027.1
20210511103520 33 184 2.0 4.0 0.00 0.00 0.00 63 1027.0